Location: Arborea
(39.7744°N, 8.5819°E)
Time: 19:30:18
(UTC+00:00)

Okean-O - Pass Details

Date: 03 June 2022
Orbit: 638 x 640 km, 98.1° (Epoch: 28 June)

Event Time Altitude Azimuth Distance (km) Brightness Sun altitude
Rises 20:11:25 0° 207° (SSW) 2,929 5.8 -13.3°
Reaches altitude 10° 20:14:24 10° 230° (SW) 2,026 5.3 -13.7°
Maximum altitude 20:17:06 16° 268° (W) 1,676 5.3 -14.1°
Drops below altitude 10° 20:19:48 10° 305° (NW) 2,035 6.6 -14.5°
Sets 20:22:49 0° 328° (NNW) 2,949 7.8 -14.9°
